Location: Unspecified
(52.4292°N, 19.3359°E)
Time: 23:40:20
(UTC+02:00)

SR - Pass Details

Date: 04 June 2024
Orbit: 580 x 858 km, 66.7° (Epoch: 12 June)

Event Time Altitude Azimuth Distance (km) Brightness Sun altitude
Rises 23:12:02 0° 320° (NW) 2,875 ? -12.5°
Reaches altitude 10° 23:14:20 10° 322° (NW) 1,943 ? -12.6°
Maximum altitude 23:18:40 81° 49° (NE) 597 ? -12.9°
Enters shadow 23:21:45 18° 137° (SE) 1,439 ? -13.0°
Drops below altitude 10° 23:22:54 10° 138° (SE) 1,895 - -13.1°
Sets 23:25:07 0° 140° (SE) 2,797 - -13.2°
